Fort Polk, LA

6:02 AM CST on January 17, 2018 (GMT -0600)
Fort Polk

Weather History for KAQV - November, 2012

Change the Weather History Date:

Sunday, November 4, 2012

  Actual Average (KPOE) Record (KPOE)
Temperature  
Mean Temperature 68 °F -  
Max Temperature 79 °F 70 °F 86 °F (2016)
Min Temperature 55 °F 49 °F 37 °F (1997)
Cooling Degree Days 2    
Growing Degree Days 18 (Base 50)    
Moisture  
Dew Point 59 °F    
Average Humidity 79    
Maximum Humidity 94    
Minimum Humidity 50    
Precipitation  
Precipitation 0.00 in - - ()
Sea Level Pressure  
Sea Level Pressure 30.07 in    
Wind  
Wind Speed 1 mph (ENE)    
Max Wind Speed 8 mph    
Max Gust Speed -    
Visibility 9 miles    
Events Thunderstorm    
Averages and records for this station are not official NWS values.
T = Trace of Precipitation, MM = Missing Value Source: NWS Daily Summary

Daily Weather History Graph

Daily Weather History Graph

Search for Another Location

Airport or City:

Trip Planner

Search our weather history database for the weather conditions in past years. The results will help you decide how hot, cold, wet, or windy it might be!

Date:

Astronomy

Nov. 04, 2012 Rise Set
Actual Time 6:31 AM CST 5:21 PM CST
Civil Twilight 6:06 AM CST 5:46 PM CST
Nautical Twilight 5:37 AM CST 6:15 PM CST
Astronomical Twilight 5:09 AM CST 6:43 PM CST
Moon 10:02 PM CST (11/4) 11:11 AM CST (11/4)
Length of Visible Light 11h 39m
Length of Day
10h 49m
Waning Gibbous, 72% of the Moon is Illuminated
Nov 4
Waning Gibbous
Nov 6
Last Quarter
Nov 13
New
Nov 20
First Quarter
Nov 28
Full

Hourly Weather History & Observations

Time (CST) Temp. Dew Point Humidity Pressure Visibility Wind Dir Wind Speed Gust Speed Precip Events Conditions
12:56 AM 66.0 °F 60.1 °F 81% 30.05 in 10.0 mi Calm Calm - N/A   Clear
1:56 AM 64.0 °F 60.1 °F 87% 30.05 in 10.0 mi Calm Calm - N/A   Scattered Clouds
1:56 AM 63.0 °F 59.0 °F 87% 30.04 in 10.0 mi Calm Calm - N/A   Clear
2:56 AM 61.0 °F 59.0 °F 93% 30.04 in 10.0 mi Calm Calm - N/A   Partly Cloudy
3:56 AM 62.1 °F 59.0 °F 90% 30.05 in 10.0 mi Calm Calm - N/A   Mostly Cloudy
4:56 AM 62.1 °F 59.0 °F 90% 30.07 in 10.0 mi Calm Calm - N/A   Scattered Clouds
5:30 AM 62.6 °F 60.8 °F 94% 30.08 in 10.0 mi Calm Calm - N/A   Mostly Cloudy
5:57 AM 64.0 °F 60.1 °F 87% 30.07 in 10.0 mi Calm Calm - N/A   Overcast
6:21 AM 62.6 °F 59.0 °F 88% 30.07 in 10.0 mi Calm Calm - N/A   Scattered Clouds
6:47 AM 62.6 °F 59.0 °F 88% 30.08 in 5.0 mi Calm Calm - N/A Thunderstorm Scattered Clouds
6:56 AM 61.0 °F 59.0 °F 93% 30.08 in 5.0 mi Calm Calm - N/A Thunderstorm Scattered Clouds
7:41 AM 62.6 °F 60.8 °F 94% 30.09 in 4.0 mi Variable 3.5 mph - N/A   Clear
7:56 AM 62.1 °F 60.1 °F 93% 30.09 in 9.0 mi Calm Calm - N/A   Clear
8:56 AM 64.9 °F 61.0 °F 87% 30.10 in 10.0 mi Variable 3.5 mph - N/A   Partly Cloudy
9:56 AM 71.1 °F 60.1 °F 68% 30.11 in 10.0 mi Calm Calm - N/A   Mostly Cloudy
10:56 AM 72.0 °F 61.0 °F 68% 30.11 in 10.0 mi Variable 3.5 mph - N/A   Mostly Cloudy
11:56 AM 75.0 °F 59.0 °F 57% 30.08 in 10.0 mi Variable 3.5 mph - N/A   Partly Cloudy
12:56 PM 77.0 °F 57.9 °F 52% 30.04 in 10.0 mi Variable 4.6 mph - N/A   Partly Cloudy
1:56 PM 78.1 °F 57.9 °F 50% 30.03 in 10.0 mi East 5.8 mph - N/A   Scattered Clouds
2:56 PM 77.0 °F 57.0 °F 50% 30.01 in 10.0 mi Variable 3.5 mph - N/A   Clear
3:56 PM 78.1 °F 57.9 °F 50% 30.01 in 10.0 mi Calm Calm - N/A   Clear
4:56 PM 73.9 °F 59.0 °F 59% 30.02 in 10.0 mi Calm Calm - N/A   Scattered Clouds
5:56 PM 66.9 °F 59.0 °F 76% 30.05 in 10.0 mi NE 8.1 mph - N/A   Partly Cloudy
6:56 PM 63.0 °F 57.0 °F 81% 30.08 in 10.0 mi NE 3.5 mph - N/A   Partly Cloudy
7:56 PM 61.0 °F 55.9 °F 83% 30.09 in 10.0 mi ENE 3.5 mph - N/A   Clear
8:56 PM 60.1 °F 55.0 °F 83% 30.09 in 10.0 mi Calm Calm - N/A   Clear
9:56 PM 57.9 °F 54.0 °F 87% 30.09 in 10.0 mi Calm Calm - N/A   Clear
10:56 PM 55.0 °F 53.1 °F 93% 30.09 in 9.0 mi Calm Calm - N/A   Clear